Satellite-Ground Cal/Val Site Overpasses Predictions

Prediction of Satellite NPP Overpassing Cal/Val Site: Antarctic Dome C

Ground Cal/Val Site Location: Latitude: -75.10, Longitude: 123.35; Satellite-Ground Site NADIR distance within 100 km.

Table of predicted overpasses for the next 14.0 days since TLE Epoch: 8/25/2017
Interval Starting Time Ending Time Minimum Distance Time Minimum Distance (km)
1 08/26/2017 14:36:24 08/26/2017 14:36:39 08/26/2017 14:36:32 85.62
2 08/27/2017 07:37:57 08/27/2017 07:38:25 08/27/2017 07:38:11 34.00
3 08/28/2017 07:19:12 08/28/2017 07:19:31 08/28/2017 07:19:22 76.04
4 08/30/2017 15:01:29 08/30/2017 15:01:52 08/30/2017 15:01:40 58.63
5 08/31/2017 14:42:39 08/31/2017 14:43:05 08/31/2017 14:42:52 50.43
6 09/01/2017 07:44:21 09/01/2017 07:44:42 09/01/2017 07:44:32 69.55
7 09/02/2017 07:25:29 09/02/2017 07:25:56 09/02/2017 07:25:42 38.48
8 09/04/2017 15:07:58 09/04/2017 15:08:05 09/04/2017 15:08:01 96.60
9 09/05/2017 14:48:58 09/05/2017 14:49:27 09/05/2017 14:49:12 14.72


NCC Satellite Cal/Val Overpasses Prediction Service
